x

9410840 - Santa Monica Pier (icac1) Weather Station

5:54 - Wed 1st Oct 2014 All times are PDT. -7 hours from GMT.

  • Wind
    5mph, 6mph gusts
  • Sea Temp 69°f
  • Air Temp 65°f
  • Sea Pressure 1009mb
  • 9410840 - Santa Monica Pier
  • 9410840 - Santa Monica Pier

More Historic Weather Station data

Upgrade to MSW Pro to gain access to the past 30 days of data for over 8000 Wavebouys and Weather Stations around the globe.

Join Pro

Comparision Forecast

View Surf forecast
   
mer. 10/01 5:54 5 6 mph 1009mb 69f 65f
5:48 6 7 mph 1008.9mb 69f 65f
5:42 5 7 mph 1008.8mb 69f 65f
5:36 6
mph
1008.7mb 69f 65f
5:30 3 6 mph 1008.7mb 69f 65f
5:24 5 6 mph 1008.7mb 69f 65f
5:18 5 6 mph 1008.7mb 69f 65f
5:12 5 6 mph 1008.6mb 69f 65f
5:06 5 6 mph 1008.6mb 69f 65f
5:00 5 6 mph 1008.5mb 69f 65f
4:54 6 7 mph 1008.5mb 69f 65f
4:48 6
mph
1008.4mb 69f 65f
4:42 5 6 mph 1008.3mb 69f 65f
4:36 3 5 mph 1008.3mb 69f 65f
4:30 3 6 mph 1008.2mb 69f 65f
4:24 3 5 mph 1008.2mb 69f 65f
4:18 3 5 mph 1008.2mb 69f 65f
4:12 2 5 mph 1008.2mb 69f 65f
4:06 2 5 mph 1008.2mb 69f 65f
4:00 5 6 mph 1008.2mb 69f 65f
3:54 3
mph
1008.1mb 69f 65f
3:48 2 3 mph 1008mb 69f 65f
3:42 2
mph
1008mb 69f 65f
3:36 3
mph
1008mb 69f 66f
3:30 3
mph
1007.9mb 69f 66f
3:24 2 5 mph 1007.9mb 69f 66f
3:18 3 5 mph 1007.9mb 69f 66f
3:12 3 6 mph 1008mb 69f 66f
3:06 5
mph
1008.1mb 69f 66f
3:00 5
mph
1008.1mb 69f 66f
2:54 3 5 mph 1008.1mb 69f 66f
2:48 3 5 mph 1008.2mb 69f 66f
2:42 3 5 mph 1008.2mb 69f 66f
2:36 3 6 mph 1008.3mb 69f 66f
2:30 5 6 mph 1008.4mb 69f 66f
2:24 3 6 mph 1008.4mb 69f 66f
2:18 5 6 mph 1008.4mb 68f 66f
2:12 5 7 mph 1008.3mb 68f 66f
2:06 5 7 mph 1008.3mb 68f 66f
2:00 5 6 mph 1008.2mb 68f 66f
1:54 5 6 mph 1008.2mb 69f 66f
1:48 5 7 mph 1008.2mb 69f 66f
1:42 5 7 mph 1008.2mb 69f 66f
1:36 5 8 mph 1008.2mb 69f 66f
1:30 8 9 mph 1008.1mb 69f 66f
1:24 6 9 mph 1008.1mb 69f 66f
1:18 7 8 mph 1008.1mb 69f 66f
1:12 8 9 mph 1008.1mb 69f 67f
1:06 7 9 mph 1008.2mb 69f 67f
1:00 7 8 mph 1008.1mb 69f 67f
12:54 7 9 mph 1008.1mb 69f 67f
12:48 8 9 mph 1008.1mb 70f 67f
12:42 8 10 mph 1008.1mb 69f 67f
12:36 6 9 mph 1008.2mb 69f 67f
12:30 5 8 mph 1008.2mb 69f 67f
12:24 6 7 mph 1008.1mb 69f 67f
12:18 5 7 mph 1008.1mb 69f 67f
12:12 6 7 mph 1008.1mb 69f 67f
12:06 5 9 mph 1008.1mb 69f 67f
12:00 7 9 mph 1008.1mb 69f 67f
mar. 09/30 11:54 6 8 mph 1008.2mb 69f 67f
11:48 6 8 mph 1008.2mb 69f 67f
11:42 5 8 mph 1008.2mb 69f 67f
11:36 7 8 mph 1008.1mb 68f 67f
11:30 7 8 mph 1008.1mb 68f 67f
11:24 7 8 mph 1008.2mb 68f 67f
11:18 6 8 mph 1008.2mb 68f 67f
11:12 6 8 mph 1008.3mb 68f 67f
11:06 5 8 mph 1008.2mb 69f 67f
11:00 6 7 mph 1008.2mb 68f 67f
10:54 7 8 mph 1008.1mb 68f 67f
10:48 6 8 mph 1008.1mb 68f 67f
10:42 7 8 mph 1008.2mb 68f 67f
10:36 6 8 mph 1008.2mb 68f 67f
10:30 7 8 mph 1008.2mb 68f 67f
10:24 7 8 mph 1008.1mb 68f 67f
10:18 7 8 mph 1008.1mb 68f 67f
10:12 6 7 mph 1008.1mb 68f 67f
10:06 5 6 mph 1008.1mb 68f 67f
10:00 3 5 mph 1008.2mb 69f 67f
9:54 2 5 mph 1008.1mb 68f 67f
9:48 3
mph
1008.1mb 69f 67f
9:42 3
mph
1008.1mb 69f 67f
9:36 2 3 mph 1008.1mb 69f 67f
9:30 3 5 mph 1008.1mb 69f 67f
9:24 2 3 mph 1008.2mb 69f 67f
9:18 2
mph
1008.2mb 69f 67f
9:12 3 5 mph 1008.2mb 69f 67f
9:06 5 6 mph 1008.1mb 69f 67f
9:00 5
mph
1008.2mb 69f 67f
8:54 2 3 mph 1008.2mb 69f 67f
8:48 1 2 mph 1008.3mb 69f 67f
8:42 3
mph
1008.2mb 69f 67f
8:36 2
mph
1008.2mb 69f 67f
8:30 2 5 mph 1008.3mb 70f -
8:24 3 5 mph 1008.2mb 70f -
8:18 3
mph
1008.1mb 70f 68f
8:12 3 6 mph 1008.2mb 70f 68f
8:06 3 5 mph 1008.2mb 70f 68f
8:00 5 6 mph 1008.2mb 70f 68f
7:54 5 6 mph 1008.2mb 70f 68f
7:48 5 7 mph 1008.2mb 70f 68f
7:42 6 7 mph 1008.1mb 70f 68f
7:36 6 7 mph 1008.1mb 71f 68f
7:30 5 6 mph 1008.1mb 71f 68f
7:24 6 7 mph 1008.1mb 71f 68f
7:18  -  mph - 71f 69f
7:12  -  mph - 71f 69f
7:06  -  mph - 71f 69f
7:00 6 8 mph 1008mb 71f 69f
6:54 3 6 mph 1008.1mb 71f 69f
6:48 5 7 mph 1008.1mb 71f 69f
6:42 6 7 mph 1008mb 71f 68f
6:36 6
mph
1008mb 71f 69f
6:30 6 7 mph 1008.1mb 71f 69f
6:24 6 7 mph 1008mb 71f 69f
6:18 7 9 mph 1008mb 71f 69f
6:12 9
mph
1008mb 72f 68f
6:06 8 9 mph 1008mb 72f 69f
6:00 8 10 mph 1008.1mb 72f 69f
5:48 9 11 mph 1008mb 72f 69f
5:42 10 11 mph 1008mb 72f 69f
5:36 10 11 mph 1008.1mb 72f 69f
5:30 10 11 mph 1008.1mb 72f 69f
5:24 10 11 mph 1008.1mb 72f 69f
5:18 10 11 mph 1008.1mb 72f 69f
5:12 8 10 mph 1008.1mb 72f 70f
5:06 9 11 mph 1008.1mb 71f 70f
5:00 10 11 mph 1008.1mb 71f 69f
4:54 10 11 mph 1008.2mb 71f 69f
4:48 10 13 mph 1008.2mb 71f 69f
4:42 10 13 mph 1008.2mb 71f 69f
4:36 11
mph
1008.3mb 71f 70f
4:00 8 9 mph 1008.4mb 71f 70f
3:54 7 8 mph 1008.4mb 71f 70f
3:48 7 8 mph 1008.5mb 71f 70f
3:42 7
mph
1008.6mb 71f 70f
3:36 7 8 mph 1008.6mb 71f 70f
3:30 7 8 mph 1008.7mb 71f 70f
3:24 7 8 mph 1008.7mb 71f 70f
3:18 6 7 mph 1008.8mb 71f 70f
3:12 6 8 mph 1008.9mb 71f 70f
3:06 7 8 mph 1008.9mb 71f 69f
3:00 8 9 mph 1009mb 71f 69f
2:54 8 9 mph 1009mb 71f 69f
2:48 7 8 mph 1009.1mb 71f 69f
2:42 8
mph
1009.1mb 71f 69f
2:36 8 9 mph 1009.2mb 71f 69f
2:30 7 8 mph 1009.2mb 71f 69f
2:24 7 8 mph 1009.2mb 71f 69f
2:18 7 8 mph 1009.3mb 70f 69f
2:06 7 8 mph 1009.4mb 70f 69f
2:00 7 8 mph 1009.5mb 70f 69f
1:54 7 8 mph 1009.6mb 70f 69f
1:48 7 8 mph 1009.8mb 70f 69f
1:42 7 8 mph 1009.9mb 70f 69f
1:36 7 8 mph 1010.1mb 70f 69f
1:30 7
mph
1010.2mb 70f 69f
1:24 6 8 mph 1010.3mb 70f 69f
1:18 7 8 mph 1010.4mb 70f 69f
1:12 6 7 mph 1010.3mb 70f 69f
1:06 6 8 mph 1010.5mb 70f 69f
1:00 7 8 mph 1010.5mb 70f 69f
12:54 8 9 mph 1010.7mb 70f 69f
12:48 7 8 mph 1010.8mb 70f 69f
12:42 8 9 mph 1010.8mb 70f 69f
12:36 8
mph
1011mb 69f 69f
12:30 8
mph
1011mb 69f 69f
12:24 7 8 mph 1011mb 69f 68f
12:18 7
mph
1011.1mb 69f 69f
12:12 6
mph
1011.2mb 69f 69f
12:06 5 6 mph 1011.2mb 69f 68f
12:00 6
mph
1011.3mb 69f 69f
11:54 6
mph
1011.3mb 69f 68f
11:48 6
mph
1011.4mb 69f 68f
11:42 5 6 mph 1011.4mb 69f 68f
11:36 6
mph
1011.5mb 69f 68f
11:30 6
mph
1011.6mb 69f 68f
11:24 6
mph
1011.5mb 69f 68f
11:18 6
mph
1011.6mb 69f 68f
11:12 6
mph
1011.6mb 68f 68f
11:06 5 7 mph 1011.6mb 68f 68f
11:00 6 8 mph 1011.7mb 68f 68f
10:54 8
mph
1011.9mb 68f 69f
10:48 7 8 mph 1011.9mb 68f 69f
10:42 7 8 mph 1011.8mb 68f 69f
10:36 6 8 mph 1011.8mb 68f 70f
10:30 8 9 mph 1011.8mb 68f 71f
10:24 6 8 mph 1011.8mb 68f 71f
10:18 7 8 mph 1011.8mb 67f 71f
10:12 7
mph
1011.8mb 67f 71f
10:06 7
mph
1011.8mb 67f 71f
10:00 6 7 mph 1011.7mb 67f 71f
9:54 5 8 mph 1011.7mb 67f 73f
9:48 6 9 mph 1011.6mb 67f 73f
9:42 7 8 mph 1011.6mb 67f 74f
9:36 6 8 mph 1011.7mb 67f 73f
9:30 8 9 mph 1011.7mb 67f 72f
9:24 6 8 mph 1011.8mb 67f 72f
9:18 6 8 mph 1011.8mb 67f 72f
9:12 8 9 mph 1011.7mb 67f 71f
9:06 7 10 mph 1011.7mb 66f 71f
9:00 8 10 mph 1011.7mb 67f 71f
8:54 8 9 mph 1011.6mb 67f 71f
8:48 8 9 mph 1011.6mb 67f 70f
8:42 7 8 mph 1011.6mb 67f 70f
8:36 5 6 mph 1011.7mb 66f 70f
8:30 6
mph
1011.6mb 66f 70f
8:24 3 5 mph 1011.6mb 67f 70f
8:18 3 5 mph 1011.6mb 67f 69f
8:12 2 3 mph 1011.5mb 67f 68f
8:06 2 3 mph 1011.6mb 67f 67f
8:00 3 6 mph 1011.6mb 67f 67f
7:54 3 5 mph 1011.5mb 67f 67f
7:48 5 6 mph 1011.5mb 67f 67f
7:42 5
mph
1011.5mb 67f 67f
7:36 3 5 mph 1011.3mb 68f 66f
7:30 3 5 mph 1011.4mb 68f 66f
7:24 2 3 mph 1011.3mb 68f 66f
7:18 2 3 mph 1011.4mb 68f 66f
7:12 3
mph
1011.3mb 68f 66f
7:06 1 2 mph 1011.2mb 69f 66f
7:00 2
mph
1011.2mb 69f 65f
6:54 2
mph
1011.3mb 69f 65f
6:48 2 3 mph 1011.2mb 69f 65f
6:42 2 5 mph 1011.3mb 69f 65f
6:36 3 5 mph 1011.2mb 69f 65f
6:30 3 5 mph 1011.2mb 69f 65f
6:24 3 5 mph 1011.2mb 69f 66f
6:18 3 5 mph 1011.2mb 69f 65f
6:12 5 6 mph 1011.2mb 69f 65f
6:06 3 5 mph 1011.2mb 69f 65f
6:00 3 6 mph 1011.2mb 69f 65f
5:54 3 5 mph 1011.3mb 69f 65f
5:48 5 6 mph 1011.2mb 69f 65f
5:42 5 7 mph 1011.1mb 69f 65f
5:36 6 7 mph 1011.1mb 69f 65f
5:30 6 7 mph 1011mb 69f 65f
5:24 6 8 mph 1010.9mb 69f 65f
5:18 6 8 mph 1010.9mb 69f 65f
5:12 6 8 mph 1010.9mb 69f 65f
5:06 6 7 mph 1010.8mb 69f 65f
5:00 5 6 mph 1010.7mb 69f 65f
4:54 3 6 mph 1010.7mb 69f 65f
4:48 5 6 mph 1010.7mb 69f 65f
4:42 5 7 mph 1010.7mb 69f 65f
4:36 2 6 mph 1010.8mb 69f 65f
4:30 5 6 mph 1010.7mb 69f 65f
4:24 5 6 mph 1010.7mb 69f 65f
4:18 3 6 mph 1010.8mb 69f 64f
4:12 5 6 mph 1010.8mb 69f 65f
4:06 3 6 mph 1010.8mb 69f 65f
4:00 5 6 mph 1010.8mb 69f 65f
3:54 6 8 mph 1010.8mb 68f 65f
3:48 7 8 mph 1010.8mb 68f 65f
3:42 6 8 mph 1010.8mb 68f 65f
3:36 5 7 mph 1010.8mb 68f 65f
3:30 3 6 mph 1011mb 68f 65f
3:24 3 6 mph 1011.1mb 68f 65f
3:18 5 6 mph 1011.1mb 68f 65f
3:12 5 6 mph 1011.2mb 68f 65f
3:06 5 7 mph 1011.3mb 68f 65f
3:00 6 7 mph 1011.4mb 68f 65f
2:54 6 8 mph 1011.4mb 68f 65f
2:48 6 8 mph 1011.5mb 68f 65f
2:42 7 9 mph 1011.6mb 68f 66f
2:36 7 9 mph 1011.6mb 68f 66f
2:30 7 8 mph 1011.6mb 68f 66f
2:24 6 8 mph 1011.6mb 67f 66f
2:18 7 8 mph 1011.6mb 68f 66f
2:12 7 8 mph 1011.7mb 68f 65f
2:06 5 6 mph 1011.8mb 68f 65f
2:00 2 5 mph 1011.8mb 68f 66f
1:54 5 6 mph 1011.8mb 69f 66f
1:48 3 6 mph 1011.7mb 69f 66f
1:42 5 6 mph 1011.7mb 69f 66f
1:36 5 6 mph 1011.6mb 69f 66f
1:30 5 6 mph 1011.5mb 69f 66f
1:24 3 5 mph 1011.5mb 70f 67f
1:18 5 6 mph 1011.5mb 70f 67f
1:12 3 5 mph 1011.5mb 70f 67f
1:06 3 5 mph 1011.5mb 70f 66f
1:00 3 5 mph 1011.5mb 70f 67f
12:54 3 5 mph 1011.5mb 70f 67f
12:48 5 6 mph 1011.5mb 70f 67f
12:42 3 6 mph 1011.6mb 70f 67f
12:36 3 7 mph 1011.6mb 71f 67f
12:30 5 6 mph 1011.7mb 71f 67f
12:24 5 6 mph 1011.8mb 71f 67f
12:18 6 7 mph 1011.7mb 71f 67f
12:12 6 8 mph 1011.7mb 71f 67f
12:06 6
mph
1011.7mb 70f 67f
12:00 7 8 mph 1011.7mb 70f 67f
lun. 09/29 11:54 5 8 mph 1011.7mb 70f 67f
11:48 7 8 mph 1011.8mb 70f 67f
11:42 7 9 mph 1011.7mb 70f 67f
11:36 8 9 mph 1011.7mb 70f 67f
11:30 6 8 mph 1011.6mb 70f 67f
11:24 5 7 mph 1011.7mb 70f 68f
11:18 6 8 mph 1011.7mb 70f 68f
11:12 7
mph
1011.6mb 70f 68f
11:06 7 8 mph 1011.6mb 70f 68f
11:00 7
mph
1011.6mb 71f 68f
10:54 6 7 mph 1011.6mb 71f 68f
10:48 3 5 mph 1011.6mb 71f 68f
10:42 1 3 mph 1011.5mb 71f 68f
10:36 3 5 mph 1011.6mb 71f 68f
10:30 3 5 mph 1011.5mb 71f 68f
10:24 3 5 mph 1011.5mb 71f 68f
10:18 2 5 mph 1011.5mb 71f 68f
10:12 3 5 mph 1011.5mb 71f 68f
10:06 3 5 mph 1011.5mb 71f 68f
10:00 5
mph
1011.6mb 71f 68f
9:54 3 5 mph 1011.6mb 71f 68f
9:48 3 5 mph 1011.6mb 71f 68f
9:42 5
mph
1011.5mb 71f 69f
9:36 5 6 mph 1011.5mb 71f 69f
9:30 5 6 mph 1011.5mb 71f 69f
9:24 5 6 mph 1011.6mb 71f 69f
9:18 5 6 mph 1011.5mb 71f 69f
9:12 5 6 mph 1011.4mb 71f 69f
9:06 3
mph
1011.4mb 71f 69f
9:00 3
mph
1011.4mb 71f 69f
8:54 2 3 mph 1011.4mb 71f 69f
8:48 3 5 mph 1011.3mb 71f 69f
8:42 3 5 mph 1011.2mb 71f 69f
8:36 3 6 mph 1011.2mb 71f 69f
8:30 6 7 mph 1011.2mb 71f 69f
8:24 7 8 mph - - -
8:18 8 9 mph 1011mb 71f -
8:12 7 8 mph 1011mb 71f -
8:06 8
mph
1010.9mb 71f -
8:00 8 9 mph 1010.8mb 71f 70f
7:54 7
mph
1010.7mb 71f 70f
7:48 5 7 mph 1010.7mb 71f 70f
7:42 6 7 mph 1010.6mb 71f 70f
7:36  -  3 mph 1010.5mb 71f 70f
7:30 2 3 mph 1010.4mb 71f 70f
7:24 2 5 mph 1010.4mb 71f 70f
7:18 3 6 mph 1010.4mb 71f 70f
7:12 5 7 mph 1010.5mb 71f 69f
7:06 7 8 mph 1010.5mb 71f 69f
7:00 8
mph
1010.6mb 71f 69f
6:54 8 9 mph 1010.7mb 71f 69f
6:48 8 10 mph 1010.7mb 71f -
6:42 10 11 mph 1010.8mb 71f -
6:36 10 11 mph 1010.8mb 71f -
6:30 10 11 mph 1010.9mb 71f 69f
6:24 10 13 mph 1010.9mb 71f 69f
6:18 11 14 mph - 71f 69f
6:12 11 13 mph - 71f 69f
6:06 11 14 mph - 71f 69f
6:00 11 14 mph 1011.1mb 71f 69f
5:54 13 14 mph 1011mb 71f 69f
5:48 14 16 mph 1011.1mb 71f 68f
5:42 14 16 mph 1011.1mb 71f 68f
5:36 14 15 mph 1011.1mb 71f 68f
5:30 13 15 mph 1011.1mb 71f 68f
5:24 13 15 mph 1011.2mb 71f 68f
5:18 11 14 mph 1011.3mb 71f 68f
5:12 11 14 mph 1011.3mb 71f 69f
5:06 13 16 mph 1011.3mb 71f 68f
5:00 14 16 mph 1011.2mb 71f 68f
4:54 14 16 mph 1011.3mb 71f 68f
4:48 15 17 mph 1011.3mb 71f 68f
4:42 14 18 mph 1011.4mb 71f 68f
4:36 16 18 mph 1011.4mb 71f 68f
4:30 17 18 mph 1011.4mb 71f 68f
4:24 18 20 mph 1011.5mb 71f 67f
4:18 18 20 mph 1011.5mb 71f 68f
4:12 17 20 mph 1011.6mb 71f 67f
4:06 17 21 mph 1011.7mb 71f 68f
4:00 17 20 mph 1011.7mb 71f 69f
3:54 18 21 mph 1011.8mb 71f 68f
3:48 17 20 mph 1011.8mb 71f 68f
3:42 15 17 mph 1011.8mb 71f 69f
3:36 15 16 mph 1011.9mb 71f 68f
3:30 13 14 mph 1011.9mb 71f 68f
3:24 11 13 mph 1012mb 71f 68f
3:18 9 10 mph 1012mb 71f 69f
3:12 9 10 mph 1011.9mb 71f 68f
3:06 7 8 mph 1011.9mb 71f 68f
3:00 7
mph
1011.9mb 71f 69f
2:54 6 7 mph 1011.9mb 71f 69f
2:48 6 7 mph 1012mb 71f 69f
2:42 7 9 mph 1012mb 71f 68f
2:36 7 8 mph 1012.1mb 71f 68f
2:30 7 8 mph 1012.2mb 71f 68f
2:24 7 8 mph 1012.2mb 71f 68f
2:18 8 9 mph 1012.3mb 71f 68f
2:12 9 10 mph 1012.4mb 71f 68f
2:06 9 10 mph 1012.5mb 71f 68f
2:00 9 10 mph 1012.6mb 71f 68f
1:54 10
mph
1012.8mb 71f 68f
1:48 9 10 mph 1012.8mb 71f 68f
1:42 9 10 mph 1013mb 71f 68f
1:36 9 11 mph 1013.1mb 71f 68f
1:30 9 10 mph 1013.1mb 71f 68f
1:24 9 10 mph 1013.2mb 71f 68f
1:18 9 10 mph 1013.3mb 70f 68f
1:12 7 9 mph 1013.4mb 70f 68f
1:06 7 8 mph 1013.5mb 70f 68f
1:00 7 9 mph 1013.5mb 70f 67f
12:54 8 9 mph 1013.6mb 70f 67f
12:48 7 8 mph 1013.7mb 70f 67f
12:42 7 8 mph 1013.7mb 70f 67f
12:36 7 8 mph 1013.7mb 70f 67f
12:30  -  mph 1013.7mb 70f 67f
12:24  -  mph 1013.8mb 70f 67f
12:18 8 9 mph 1013.8mb 70f 67f
12:12 8
mph
1013.8mb 70f 66f
12:06 7 8 mph 1013.9mb 70f 67f
12:00 7
mph
1014mb 70f 67f
11:54 6 7 mph 1013.9mb 70f 67f
11:48 6 7 mph 1014mb 70f 67f
11:42 6 7 mph 1014mb 70f 66f
11:36 6 8 mph 1014.1mb 70f 66f
11:30 6 8 mph 1014.1mb 70f 66f
11:24 7 8 mph 1014.2mb 70f 66f
11:18 6 8 mph 1014.2mb 70f 66f
11:12 7
mph
1014.2mb 70f 66f
11:06 6 7 mph 1014.2mb 70f 66f
11:00 6 7 mph 1014.3mb 70f 66f
10:54 5 7 mph 1014.3mb 70f 66f
10:48 6 7 mph 1014.3mb 69f 66f
10:42 5 7 mph 1014.3mb 69f 66f
10:36 6 7 mph 1014.3mb 69f 66f
10:30 5 7 mph 1014.2mb 69f 66f
10:24 6 7 mph 1014.2mb 69f 66f
10:18 6 7 mph 1014.3mb 69f 66f
10:12 6 7 mph 1014.3mb 69f 65f
10:06 5 6 mph 1014.2mb 69f 66f
10:00 5 6 mph 1014.2mb 69f 66f
9:54 5 6 mph 1014.2mb 69f 66f
9:48 5 6 mph 1014.2mb 69f 66f
9:42 5 6 mph 1014.2mb 69f 66f
9:36 5 6 mph 1014.2mb 69f 66f
9:30 5 6 mph 1014.2mb 69f 66f
9:24 5 6 mph 1014.3mb 69f 66f
9:18 6
mph
1014.2mb 69f 66f
9:12 5 6 mph 1014.2mb 69f 66f
9:06 5
mph
1014.2mb 69f 66f
9:00 3
mph
1014.2mb 69f 67f
8:54 2 3 mph 1014.2mb 69f 67f
8:48 2 3 mph 1014.2mb 69f 67f
8:42 2 3 mph 1014.2mb 69f 67f
8:36 3
mph
1014.1mb 69f 68f
8:30 2 3 mph 1014.1mb 69f 69f
8:24 2 3 mph 1014.1mb 69f 69f
8:18 1 2 mph 1013.9mb 69f 68f
8:12 2 3 mph 1013.8mb 69f 67f
8:06 2 3 mph 1013.8mb 69f 67f
8:00 1 2 mph 1013.8mb 69f 67f
7:54 1 5 mph 1013.8mb 69f 66f
7:48 5 6 mph 1013.6mb 69f 65f
7:42 3 5 mph 1013.7mb 69f 65f
7:36 2 5 mph 1013.7mb 69f 65f
7:30 3 5 mph 1013.6mb 69f 64f
7:24 5
mph
1013.6mb 69f 64f
7:18 5 6 mph 1013.6mb 69f 64f
7:12 3 6 mph 1013.5mb 69f 63f
7:06 3 6 mph 1013.5mb 69f 64f
7:00 3 7 mph 1013.4mb 69f 63f
6:54 3 5 mph 1013.5mb 69f 63f
6:48 2 3 mph 1013.4mb 69f 63f
6:42 5 7 mph 1013.4mb 69f 63f
6:36 6 7 mph 1013.4mb 69f 64f
6:30 5 6 mph 1013.3mb 69f 63f
6:24 5 6 mph 1013.4mb 69f 63f
6:18 6 7 mph 1013.4mb 69f 63f
6:12 6 8 mph 1013.4mb 68f 63f
6:06 3
mph
1013.3mb 68f 64f
6:00 3 5 mph 1013.2mb 68f 63f
5:54 5
mph
1013.3mb 68f 63f
5:48 3 5 mph 1013.3mb 68f 63f
5:42 5 8 mph 1013.2mb 68f 63f
5:36 6 7 mph 1013.2mb 68f 63f
5:30 3 6 mph 1013.1mb 68f 64f
5:24 5 6 mph 1013.1mb 68f 63f
5:18 3 6 mph 1013.2mb 68f 63f
5:12 6
mph
1013.2mb 68f 63f
5:06 5 7 mph 1013.3mb 68f 63f
5:00 5 6 mph 1013.3mb 68f 63f
4:54 6 7 mph 1013.3mb 68f 63f
4:48 6 7 mph 1013.3mb 69f 63f
4:42 5
mph
1013.2mb 69f 64f
4:36 3 5 mph 1013.1mb 69f 64f
4:30 5
mph
1013.1mb 69f 64f
4:24 3 5 mph 1013.1mb 69f 64f
4:18 3
mph
1013.1mb 69f 64f
4:12 3 6 mph 1013.1mb 69f 64f
4:06 6 7 mph 1013.1mb 69f 64f
4:00 7
mph
1013.1mb 69f 64f
3:54 5 6 mph 1013.1mb 69f 64f
3:48 5 6 mph 1013.1mb 69f 64f
3:42 5 6 mph 1013.1mb 69f 64f
3:36 5 6 mph 1013.1mb 69f 64f
3:30 3 5 mph 1013mb 69f 64f
3:24 3 5 mph 1013.1mb 69f 64f
3:18 5
mph
1013mb 69f 64f
3:12 6
mph
1013.1mb 69f 64f
3:06 5 6 mph 1013.1mb 69f 64f
3:00 5 6 mph 1013.1mb 69f 64f
2:54 5 6 mph 1013.3mb 69f 64f
2:48 3 5 mph 1013.3mb 70f 64f
2:42 5
mph
1013.4mb 70f 64f
2:36 3 6 mph 1013.4mb 70f 65f
2:30 5
mph
1013.5mb 70f 64f
2:24 3 6 mph 1013.5mb 70f 64f
2:18 6 7 mph 1013.6mb 70f 64f
2:12 5 6 mph 1013.7mb 70f 65f
2:06 5 7 mph 1013.7mb 70f 65f
2:00 6 7 mph 1013.7mb 70f 65f
1:54 6
mph
1013.7mb 70f 65f
1:48 5 6 mph 1013.6mb 70f 65f
1:42 6 7 mph 1013.7mb 70f 65f
1:36 6 7 mph 1013.6mb 70f 65f
1:30 5 7 mph 1013.6mb 70f 65f
1:24 6 7 mph 1013.5mb 70f 65f
1:18 5 6 mph 1013.5mb 70f 65f
1:12 5 6 mph 1013.5mb 70f 65f
1:06 5 6 mph 1013.4mb 70f 65f
1:00 3 6 mph 1013.4mb 70f 65f
12:54 5 6 mph 1013.4mb 70f 65f
12:48 5 6 mph 1013.4mb 70f 65f
12:42 5 6 mph 1013.4mb 70f 65f
12:36 5 8 mph 1013.4mb 70f 65f
12:30 2 6 mph 1013.4mb 70f 65f
12:24 3 6 mph 1013.4mb 70f 65f
12:18 6 7 mph 1013.4mb 70f 65f
12:12 6 7 mph 1013.5mb 70f 66f
12:06 6 8 mph 1013.6mb 70f 66f
12:00 7 9 mph 1013.6mb 70f 66f
dim. 09/28 11:54 5 7 mph 1013.6mb 70f 67f
11:48 2 3 mph 1013.6mb 70f 67f
11:42 2 3 mph 1013.5mb 70f 67f
11:36 5 6 mph 1013.3mb 70f 66f
11:30 5 6 mph 1013.3mb 70f 67f
11:24 6 7 mph 1013.3mb 70f 67f
11:18 5 6 mph 1013.4mb 70f 67f
11:12 6 7 mph 1013.5mb 70f 67f
11:06 6 7 mph 1013.5mb 70f 67f
11:00 7 9 mph 1013.4mb 70f 67f
10:54 7 8 mph 1013.5mb 70f 67f
10:48 7 8 mph 1013.5mb 70f 67f
10:42 7 8 mph 1013.5mb 70f 67f
10:36 6 7 mph 1013.5mb 70f 67f
10:30 6 9 mph 1013.4mb 70f 67f
10:24 7 9 mph 1013.4mb 70f 67f
10:18 7 8 mph 1013.3mb 70f 66f
10:12 7 8 mph 1013.2mb 70f 67f
10:06 7 8 mph 1013.2mb 70f 66f
10:00 7 8 mph 1013.1mb 70f 66f
9:54 6 7 mph 1013.1mb 70f 67f
9:48 3 5 mph 1013.1mb 70f 67f
9:42 3
mph
1013mb 70f 67f
9:36 1 2 mph 1013mb 70f 67f
9:30 2
mph
1012.9mb 70f 67f
9:24  -  1 mph 1012.9mb 71f 67f
9:18  -  1 mph 1012.9mb 70f 67f
9:12  -  2 mph 1012.8mb 70f 67f
9:06 1 3 mph 1012.9mb 71f 67f
9:00 2 3 mph 1012.9mb 71f 67f
8:54 3 6 mph 1013mb 71f 67f
8:48 3 7 mph 1013mb 71f 67f
8:42 7 9 mph 1012.9mb 71f 67f
8:36 7 9 mph 1012.9mb 71f 67f
8:30 8 10 mph 1012.9mb 71f 67f
8:24 9 10 mph 1012.9mb 71f 67f
8:18 8 9 mph 1012.8mb 71f 67f
8:12 8 9 mph 1012.7mb 71f 67f
8:06 7 9 mph 1012.6mb 71f 67f
8:00 7 9 mph 1012.5mb 71f 67f
7:54 8 9 mph 1012.5mb 71f 67f
7:48 9
mph
1012.5mb 71f 67f
7:42 8 9 mph 1012.4mb 71f 67f
7:36 9 10 mph 1012.3mb 71f 67f
7:30 9 10 mph 1012.3mb 71f 67f
7:24 9 10 mph 1012.4mb 71f 67f
7:18 9 11 mph 1012.3mb 71f 67f
7:12 10 11 mph 1012.3mb 71f 67f
7:06 8 10 mph 1012.3mb 71f 67f
7:00 9 11 mph 1012.4mb 71f 67f
6:54 9 11 mph 1012.5mb 71f 67f
6:48 10 14 mph 1012.5mb 71f 67f
6:42 11 13 mph 1012.4mb 71f 67f
6:36 11 14 mph 1012.4mb 71f 67f
6:30 11 14 mph 1012.4mb 71f 67f
6:24 11 14 mph 1012.3mb 71f 67f
6:18 10 13 mph 1012.3mb 71f 67f
6:12 11 13 mph 1012.3mb 71f 67f
6:06 11 13 mph 1012.4mb 71f 67f
6:00 10 13 mph 1012.3mb 71f 67f
5:54 11 13 mph 1012.4mb 71f 67f
5:48 10 14 mph 1012.4mb 71f 67f
5:42 13 14 mph 1012.4mb 71f 67f
5:36 13 14 mph 1012.4mb 71f 67f
5:30 11 15 mph 1012.4mb 71f 67f
5:24 13 15 mph 1012.3mb 71f 67f
5:18 13 14 mph 1012.3mb 71f 67f
5:12 13 14 mph 1012.4mb 71f 67f
5:06 13 14 mph 1012.4mb 71f 67f
5:00 11 13 mph 1012.4mb 71f 67f
4:54 11 14 mph 1012.5mb 71f 67f
4:48 11 13 mph 1012.4mb 71f 67f
4:42 13 14 mph 1012.4mb 71f 67f
4:36 11 13 mph 1012.3mb 71f 67f
4:30 11 13 mph 1012.3mb 71f 67f
4:24 10 11 mph 1012.2mb 71f 68f
4:18 10 11 mph 1012.2mb 71f 68f
4:12 10 11 mph 1012.3mb 71f 67f
4:06 9 10 mph 1012.2mb 71f 68f
4:00 10 11 mph 1012.2mb 71f 67f
3:54 10 13 mph 1012.2mb 71f 68f
3:48 11
mph
1012.2mb 71f 68f
3:42 8 10 mph 1012.2mb 71f 69f
3:36 8 9 mph 1012.2mb 71f 69f
3:30 9 10 mph 1012.2mb 71f 68f
3:24 9 10 mph 1012.3mb 71f 68f
3:18 9 11 mph 1012.3mb 71f 68f
3:12 10 11 mph 1012.2mb 71f 68f
3:06 8 10 mph 1012.2mb 71f 69f
3:00 9 10 mph 1012.4mb 71f 68f
2:54 9 10 mph 1012.5mb 71f 68f
2:48 9 10 mph 1012.5mb 70f 68f
2:42 9 10 mph 1012.4mb 70f 68f
2:36 8 9 mph 1012.5mb 70f 68f
2:30 9
mph
1012.6mb 70f 68f
2:24 9
mph
1012.6mb 70f 68f
2:18 9 10 mph 1012.6mb 70f 68f
2:12 9 10 mph 1012.6mb 70f 68f
2:06 8 10 mph 1012.6mb 70f 68f
2:00 9 10 mph 1012.7mb 70f 67f
1:54 10 11 mph 1012.7mb 70f 67f
1:48 9 11 mph 1012.8mb 70f 67f
1:42 9 11 mph 1012.9mb 70f 67f
1:36 10 11 mph 1013mb 70f 68f
1:30 10 11 mph 1013.1mb 70f 68f
1:24 9 11 mph 1013.2mb 70f 68f
1:18 10 13 mph 1013.3mb 70f 68f
1:12 10 13 mph 1013.3mb 70f 68f
1:06 11 14 mph 1013.3mb 70f 68f
1:00 11 15 mph 1013.2mb 70f 68f
12:54 13 15 mph 1013.2mb 70f 68f
12:48 14 15 mph 1013.2mb 70f 68f
12:42 15 16 mph 1013.2mb 70f 67f
12:36 14 16 mph 1013.2mb 70f 67f
12:30 14 17 mph 1013.3mb 70f 68f
12:24 15 17 mph 1013.3mb 70f 67f
12:18 14 16 mph 1013.3mb 70f 68f
12:12 14 16 mph 1013.3mb 70f 67f
12:06 16 17 mph 1013.2mb 69f 67f
12:00 15 16 mph 1013.2mb 69f 67f
11:54 15 16 mph 1013.2mb 69f 67f
11:48 15
mph
1013.2mb 69f 67f
11:42 13 14 mph 1013.2mb 69f 68f
11:36 11 13 mph 1013.2mb 69f 68f
11:30 8 9 mph 1013.3mb 69f 69f
11:24 8 9 mph 1013.3mb 69f 69f
11:18 9 11 mph 1013.3mb 69f 68f
11:12 9 11 mph 1013.3mb 69f 69f
11:06 9 11 mph 1013.3mb 68f 69f
11:00 8 10 mph 1013.3mb 68f 71f
10:54 7 9 mph 1013.3mb 68f 71f
10:48 5 11 mph 1013.3mb 68f 71f
10:42 3 7 mph 1013.3mb 68f 71f
10:36 3 9 mph 1013.4mb 68f 70f
10:30 7 9 mph 1013.4mb 68f 70f
10:24 5 7 mph 1013.4mb 68f 71f
10:18 6 9 mph 1013.4mb 68f 70f
10:12 6 8 mph 1013.4mb 68f 70f
10:06 6 9 mph 1013.5mb 68f 69f
10:00 6 9 mph 1013.5mb 68f 69f
9:54 8 13 mph 1013.5mb 67f 69f
9:48 9 10 mph 1013.6mb 67f 69f
9:42 7 9 mph 1013.6mb 67f 69f
9:36 7 10 mph 1013.7mb 67f 69f
9:30 7 9 mph 1013.6mb 67f 69f
9:24 6 9 mph 1013.7mb 67f 69f
9:18 5 7 mph 1013.6mb 67f 69f
9:12 6 8 mph 1013.7mb 67f 68f
9:06 6 9 mph 1013.7mb 67f 68f
9:00 8 11 mph 1013.7mb 67f 67f
8:54 9 10 mph 1013.6mb 67f 67f
8:48 6 10 mph 1013.6mb 67f 67f
8:42 8 10 mph 1013.5mb 67f 67f
8:36 7 10 mph 1013.5mb 67f 67f
8:30 8 9 mph 1013.3mb 67f 67f
8:24 6 10 mph 1013.2mb 67f 67f
8:18 7 11 mph 1013mb 67f 67f
8:12 8 10 mph 1013mb 67f 67f
8:06 6 8 mph 1012.9mb 67f 67f
8:00 7 9 mph 1012.8mb 67f 66f
7:54 5 8 mph 1012.8mb 67f 66f
7:48 5 8 mph 1012.9mb 67f 66f
7:42 6 9 mph 1012.8mb 67f 66f
7:36 6 9 mph 1012.8mb 67f 66f
7:30 6 8 mph 1012.8mb 67f 66f
7:24 6 8 mph 1012.8mb 67f 65f
7:18 6 8 mph 1012.8mb 67f 65f
7:12 5 7 mph 1012.7mb 67f 65f
7:06 5 7 mph 1012.7mb 67f 65f
7:00 6 8 mph 1012.6mb 67f 65f
6:54 6 8 mph 1012.6mb 67f 65f
6:48 5 7 mph 1012.5mb 67f 65f
6:42 7 8 mph 1012.4mb 67f 65f
6:36 6 8 mph 1012.3mb 67f 65f
6:30 6 7 mph 1012.1mb 67f 65f
6:24 6 7 mph 1012.1mb 67f 65f
6:18 5 7 mph 1012mb 67f 65f
6:12 6 8 mph 1012mb 67f 65f
6:06 5 7 mph 1011.9mb 66f 65f
6:00 6 8 mph 1011.9mb 67f 65f
5:54 6 9 mph 1011.9mb 66f 65f
5:48 7 8 mph 1011.8mb 66f 65f
5:42 6 8 mph 1011.8mb 66f 65f
5:36 6 8 mph 1011.7mb 67f 64f
5:30 5 7 mph 1011.6mb 66f 65f
5:24 5 9 mph 1011.5mb 67f 65f
5:18 6 8 mph 1011.4mb 67f 65f
5:12 6 8 mph 1011.4mb 68f 65f
5:06 6 7 mph 1011.3mb 68f 65f
5:00 6 7 mph 1011.3mb 68f 65f
4:54 5 8 mph 1011.3mb 69f 65f
4:48 6 9 mph 1011.2mb 69f 65f
4:42 6 9 mph 1011.2mb 69f 65f
4:36 8 9 mph 1011.2mb 69f 65f
4:30 7 9 mph 1011.2mb 69f 65f
4:24 8 10 mph 1011.1mb 69f 65f
4:18 7 9 mph 1011.1mb 69f 65f
4:12 7 10 mph 1011.1mb 69f 65f
4:06 8 10 mph 1011.1mb 69f 65f
4:00 7 9 mph 1011.2mb 69f 65f
3:54 6 9 mph 1011.1mb 69f 65f
3:48 7 8 mph 1011.2mb 69f 65f
3:42 7 10 mph 1011.1mb 69f 65f
3:36 7 9 mph 1011.1mb 69f 65f
3:30 8
mph
1011.1mb 69f 66f
3:24 7 11 mph 1011mb 69f 66f
3:18 8 9 mph 1010.9mb 69f 66f
3:12 7 10 mph 1011mb 69f 66f
3:06 9 10 mph 1010.9mb 69f 66f
3:00 6 8 mph 1011mb 69f 66f
2:54 5 7 mph 1011.1mb 69f 66f
2:48 5 7 mph 1011.1mb 69f 66f
2:42 6 8 mph 1011.1mb 69f 66f
2:36 6 7 mph 1011.1mb 69f 66f
2:30 5 8 mph 1011.1mb 69f 66f
2:24 7 8 mph 1011mb 69f 66f
2:18 7 8 mph 1011.1mb 69f 66f
2:12 7 8 mph 1011.1mb 69f 66f
2:06 6 7 mph 1011.1mb 69f 66f
2:00 6
mph
1011.1mb 69f 66f
1:54 6
mph
1011mb 69f 66f
1:48 6 7 mph 1011mb 69f 66f
1:42 6 8 mph 1011mb 69f 66f
1:36 6 7 mph 1011mb 69f 66f
1:30 5 6 mph 1010.9mb 69f 66f
1:24 5 6 mph 1010.8mb 69f 66f
1:18 3 5 mph 1010.8mb 69f 66f
1:12 3 6 mph 1010.7mb 69f 66f
1:06 3 6 mph 1010.7mb 69f 66f
1:00 3 6 mph 1010.6mb 69f 66f
12:54 3 6 mph 1010.6mb 69f 66f
12:48 5 6 mph 1010.7mb 69f 66f
12:42 5 7 mph 1010.7mb 69f 66f
12:36 5 7 mph 1010.6mb 69f 66f
12:30 6 7 mph 1010.7mb 69f 66f
12:24 5 6 mph 1010.7mb 69f 65f
12:18 5 6 mph 1010.7mb 69f 65f
12:12 5 6 mph 1010.8mb 69f 65f
12:06 5 6 mph 1010.8mb 69f 65f
12:00 3 6 mph 1010.7mb 69f 65f
sam. 09/27 11:54 3 6 mph 1010.8mb 69f 65f
11:48 5
mph
1010.8mb 69f 65f
11:42 5 6 mph 1010.7mb 69f 65f
11:36 6
mph
1010.8mb 69f 65f
11:30 6
mph
1010.8mb 69f 65f
11:24 3 6 mph 1010.7mb 69f 65f
11:18 3 7 mph 1010.7mb 69f 65f
11:12 6
mph
1010.8mb 69f 65f
11:06 6 7 mph 1010.7mb 69f 65f
11:00 7 8 mph 1010.7mb 69f 65f
10:54 6 7 mph 1010.7mb 69f 65f
10:48 6
mph
1010.7mb 69f 66f
10:42 5 6 mph 1010.8mb 69f 66f
10:36 3 5 mph 1010.8mb 69f 66f
10:30 2 3 mph 1010.8mb 69f 66f
10:24 2 3 mph 1010.8mb 69f 66f
10:18 2 3 mph 1010.8mb 69f 65f
10:12 1 2 mph 1010.7mb 69f 66f
10:06 1 2 mph 1010.6mb 69f 66f
10:00 1 2 mph 1010.6mb 69f 66f
9:54 2 3 mph 1010.6mb 69f 66f
9:48 2 3 mph 1010.5mb 69f 66f
9:42 3 5 mph 1010.4mb 69f 66f
9:36 2 3 mph 1010.3mb 69f 66f
9:30 3
mph
1010.3mb 69f 66f
9:24  -  2 mph 1010.3mb 69f 66f
9:18 2 3 mph 1010.2mb 69f 66f
9:12 3 6 mph 1010.3mb 70f 66f
9:06 5 7 mph 1010.2mb 70f 66f
9:00 5 6 mph 1010.2mb 70f 66f
8:54 7
mph
1010.2mb 70f 66f
8:48 6 8 mph 1010.1mb 70f 66f
8:42 8 11 mph 1010.1mb 70f 66f
8:36 10 13 mph 1010mb 70f 66f
8:30 11 14 mph 1010mb 70f 66f
8:24 13 15 mph 1009.9mb 70f 66f
8:18 14 15 mph 1009.8mb 70f 66f
8:12 15 16 mph 1009.7mb 71f 66f
8:06 15 16 mph 1009.7mb 71f 66f
8:00 14 16 mph 1009.6mb 71f 66f
7:54 15 17 mph 1009.5mb 71f 66f
7:48 14 16 mph 1009.5mb 71f 66f
7:42 15 17 mph 1009.5mb 71f 66f
7:36 17 20 mph 1009.4mb 71f 66f
7:30 17 20 mph 1009.3mb 71f 66f
7:24 17 18 mph 1009.3mb 71f 66f
7:18 16 18 mph 1009.3mb 71f 66f
7:12 17 22 mph 1009.3mb 71f 66f
7:06 17 21 mph 1009.2mb 71f 66f
7:00 20 22 mph 1009.2mb 71f 66f
6:54 21 23 mph 1009.2mb 70f 66f
6:48 22 23 mph 1009.2mb 71f 66f
6:42 21 23 mph 1009.2mb 71f 66f
6:36 20 23 mph 1009.1mb 71f 66f
6:30 22 24 mph 1009mb 71f 66f
6:24 22 25 mph 1008.9mb 71f 66f
6:18 22 24 mph 1008.9mb 71f 66f
6:12 21 25 mph 1008.9mb 71f 66f
6:06 22 25 mph 1008.9mb 71f 66f
6:00 22 24 mph 1008.9mb 71f 66f
5:54 18 23 mph 1009mb 71f 67f
5:48 18 23 mph 1008.9mb 71f 67f
5:42 20 23 mph 1008.9mb 71f 67f
5:36 20 23 mph 1008.9mb 71f 67f
5:30 18 22 mph 1008.9mb 71f 67f
5:24 20 22 mph 1008.8mb 71f 67f
5:18 17 21 mph 1008.9mb 71f 67f
5:12 14 17 mph 1009.1mb 71f 68f
5:06 15 17 mph 1009.1mb 71f 67f
5:00 13 16 mph 1009.3mb 71f 67f
4:54 14 16 mph 1009.3mb 71f 68f
4:48 15 17 mph 1009.2mb 71f 67f
4:42 15 17 mph 1009.2mb 71f 67f
4:36 15 18 mph 1009.3mb 71f 67f
4:30 15 20 mph 1009.4mb 71f 68f
4:24 16 21 mph 1009.4mb 71f 67f
4:18 20 21 mph 1009.3mb 71f 67f
4:12 20 22 mph 1009.3mb 71f 67f
4:06 20 23 mph 1009.4mb 71f 67f
4:00 21 23 mph 1009.4mb 70f 68f
3:54 18 20 mph 1009.5mb 70f 67f
3:48 17 20 mph 1009.5mb 70f 67f
3:42 16 17 mph 1009.6mb 70f 67f
3:36 15 16 mph 1009.7mb 70f 67f
3:30 16 17 mph 1009.7mb 70f 66f
3:24 15 17 mph 1009.6mb 70f 66f
3:18 15 16 mph 1009.7mb 70f 66f
3:12 14 16 mph 1009.7mb 70f 67f
3:06 15 17 mph 1009.8mb 70f 67f
3:00 16 17 mph 1009.9mb 70f 66f
2:54 14 17 mph 1009.9mb 70f 66f
2:48 16 17 mph 1010mb 70f 66f
2:42 16 17 mph 1010.1mb 70f 66f
2:36 15 16 mph 1010.2mb 70f 66f
2:30 16 17 mph 1010.2mb 70f 66f
2:24 14 16 mph 1010.2mb 70f 66f
2:18 14 16 mph 1010.3mb 70f 66f
2:12 15 16 mph 1010.3mb 70f 66f
2:06 14 15 mph 1010.3mb 70f 66f
2:00 14 15 mph 1010.5mb 70f 66f
1:54 14 16 mph 1010.6mb 70f 66f
1:48 14 17 mph 1010.6mb 70f 66f
1:42 14 16 mph 1010.6mb 70f 66f